Regional Weather Roundup
Issued by NWS

Home | Current Version | Previous Version | Text Only | Print | Product List | Glossary On
Versions: 1 2 3 4 5 6 7 8 9 10 11 12 13 14 15 16 17 18 19 20 21 22 23 24 25 26 27 28 29 30 31 32 33 34 35 36 37 38 39 40 41 42 43 44 45 46 47 48 49 50
000
ASUS43 KMKX 280110
RWRWI

WISCONSIN REGIONAL WEATHER ROUNDUP
NATIONAL WEATHER SERVICE MILWAUKEE/SULLIVAN WI
700 PM CST FRI FEB 27 2015

NOTE: "FAIR" INDICATES FEW OR NO CLOUDS BELOW 12,000 FEET WITH NO
SIGNIFICANT WEATHER AND/OR OBSTRUCTIONS TO VISIBILITY.

WIZ001-002-006>008-014>016-023>028-280200-
NORTHWEST WISCONSIN

CITY           SKY/WX    TMP DP  RH WIND       PRES   REMARKS
SUPERIOR ARPT  CLEAR     14  -6  40 SW7       30.44R WCI   4
ASHLAND        CLEAR     13  -6  42 SW9       30.43R WCI   1
HAYWARD        CLEAR      7  -8  50 S5        30.43R WCI  -2
SIREN          CLEAR      9  -5  53 SW3       30.47R
CUMBERLAND     CLEAR      5  -4  66 SW8       30.45R WCI  -8
RICE LAKE      CLEAR     10  -2  58 S5        30.48R WCI   2
CHETEK         CLEAR      6  -3  63 S3        30.48R
LADYSMITH      FAIR      10  -4  53 SW3       30.47R
EAU CLAIRE     CLEAR      8  -4  58 SW7       30.51R WCI  -3
MENOMONIE      CLEAR      8  -2  63 S7        30.52R WCI  -3
NEW RICHMOND   CLEAR      8  -1  64 S9        30.50R WCI  -5
OSCEOLA        CLEAR     12  -3  53 S5        30.52R WCI   4
$$

WIZ003>005-009-010-017-018-280200-
NORTH CENTRAL WISCONSIN

CITY           SKY/WX    TMP DP  RH WIND       PRES   REMARKS
MANITOWISH WTR CLEAR      9 -11  40 SW3       30.37R
ARBOR VITAE    FAIR      11  -5  48 SW7       30.38R WCI   1
WOODRUFF       FAIR      11  -5  48 SW7       30.38R WCI   1
RHINELANDER    CLEAR      7  -7  52 SW7       30.39R WCI  -5
EAGLE RIVER    CLEAR      7  -9  49 SW7       30.37R WCI  -5
LAND O LAKES   CLEAR      1  -9  62 CALM      30.37R
PHILLIPS       CLEAR      8  -8  50 SW6       30.41R WCI  -3
TOMAHAWK       CLEAR      6  -6  59 CALM      30.42R
MEDFORD        CLEAR      6  -5  60 SW3       30.44R
MERRILL        CLEAR      7  -5  57 W5        30.45R WCI  -2
$$

WIZ029-030-035-036-043>047-280200-
CENTRAL WISCONSIN

CITY           SKY/WX    TMP DP  RH WIND       PRES   REMARKS
WAUSAU         CLEAR      9  -4  55 W5        30.45R WCI   1
MOSINEE        CLEAR      9  -4  56 W5        30.47R WCI   0
MARSHFIELD     CLEAR      9  -5  53 W8        30.47R WCI  -3
STEVENS POINT  CLEAR      9  -5  53 CALM      30.49R
WAUPACA        FAIR      13  -5  45 SW5       30.51R WCI   5
WAUTOMA        CLEAR     10  -6  48 SW6       30.53R WCI   0
WISC RAPIDS    CLEAR     11  -8  42 W5        30.52R WCI   3
CAMP DOUGLAS   CLEAR     10  -5  50 SW7       30.53R WCI  -1
$$

WIZ011>013-019>022-031-037>040-048>050-280200-
NORTHEAST WISCONSIN

CITY           SKY/WX    TMP DP  RH WIND       PRES   REMARKS
ANTIGO         CLEAR      4  -6  65 W5        30.42R WCI  -6
SHAWANO        CLEAR     14  -5  42 CALM      30.50R
OCONTO         CLEAR     12  -5  46 SW7       30.50R WCI   1
STURGEON BAY   CLEAR     12  -4  48 SW9       30.50R WCI   0
GREEN BAY      CLEAR     13  -1  54 SW5       30.51R WCI   5
MANITOWOC      CLEAR     11   0  61 SW7         N/A  WCI   0
APPLETON       CLEAR     10  -9  40 SW7       30.51R WCI   0
CLINTONVILLE   CLEAR     12  -8  40 CALM      30.50R
OSHKOSH        CLEAR     11  -2  56 SW6       30.52R WCI   1
$$

WIZ032>034-041-042-053>061-280200-
SOUTHWEST WISCONSIN

CITY           SKY/WX    TMP DP  RH WIND       PRES   REMARKS
LA CROSSE      CLEAR      7  -5  57 S8        30.58R WCI  -6
SPARTA         CLEAR      9  -6  52 CALM      30.55R
VIROQUA        CLEAR      5  -5  63 SW8       30.51R WCI  -8
BOSCOBEL       CLEAR      7  -6  55 SW5       30.60R WCI  -2
PRAIRIE DU CHI CLEAR      5  -8  55 W5        30.61R WCI  -4
PLATTEVILLE    CLEAR      1  -9  63 SW7       30.58R WCI -12
$$

WIZ056-057-062-063-064-067-068-280200-
SOUTH CENTRAL WISCONSIN

CITY           SKY/WX    TMP DP  RH WIND       PRES   REMARKS
REEDSBURG      CLEAR     11  -3  52 SW6       30.54R WCI   1
BARABOO/DELLS  CLEAR      9  -6  50 SW6       30.53R WCI  -1
LONE ROCK      CLEAR      7  -6  55 SW3       30.59R
MINERAL POINT  CLEAR      7  -6  56 SW7       30.55R WCI  -5
MADISON        CLEAR      8  -5  55 SW6       30.56R WCI  -2
MIDDLETON      CLEAR     10  -6  48 SW6       30.57R WCI   0
WATERTOWN      CLEAR      8  -3  60 SW7       30.56R WCI  -3
MONROE         CLEAR      7  -2  66 SW6       30.56R WCI  -3
JANESVILLE     CLEAR      9  -6  52 SW7       30.59R WCI  -3
$$

WIZ051-052-058>065-066-070>072-280200-
SOUTHEAST WISCONSIN

CITY           SKY/WX    TMP DP  RH WIND       PRES   REMARKS
MILWAUKEE      CLEAR     11  -6  46 SW7       30.59R WCI   0
WAUKESHA       CLEAR      7  -6  56 SW10      30.57R WCI  -8
MILWAUKEE/TIMM CLEAR     10  -6  48 W9        30.58R WCI  -2
RACINE         CLEAR      9  -6  50 SW8       30.61R WCI  -3
BURLINGTON     CLEAR      4  -7  60 SW5       30.59R WCI  -6
KENOSHA        CLEAR      4  -8  57 W8        30.60R WCI  -9
FOND DU LAC    CLEAR     11  -2  56 SW7       30.53R WCI   0
SHEBOYGAN      CLEAR     10  -3  55 SW8       30.54R WCI  -2
WEST BEND      CLEAR      9  -4  56 SW8       30.55R WCI  -4
JUNEAU         CLEAR      8  -3  62 S7        30.56R WCI  -3
$$

LSZ147-162-280200-
LAKE SUPERIOR

STATION/POSITION TIME  TEMP    WIND        PRES    WAVE
                       AIR SEA DIR/SP/G            HT/PER
                 (UTC) (F)     (DEG/KT/KT) (MB)    (FT/S)
DEVILS ISLAND    0100   15     220/ 11/ 13 1031.0R
PORT WING        0000   18     210/  7/  9 1029.8
SAXON HARBOR     0040   12     210/  2/  5 1030.5R
$$

LMZ867-665-643>646-280200-
LAKE MICHIGAN

STATION/POSITION TIME  TEMP    WIND        PRES    WAVE
                       AIR SEA DIR/SP/G            HT/PER
                 (UTC) (F)     (DEG/KT/KT) (MB)    (FT/S)
NORTHPORT PIER   0000   15     190/  3/ 10 1031.2R
SISTER BAY       2313   17     210/ 13/ 16   N/A
KEWAUNEE LAKESHO 0000   16     240/  3/  7 1031.7R
SHEBOYGAN LAKESH 0100   15     230/ 10/ 12 1036.4R
PORT WASHINGTON  0040   14     240/  6/  8 1035.6R
MILWAUKEE LAKESH 0000   15     230/ 12/ 14   N/A
KENOSHA   LAKESH 0100   11     240/  6/ 12 1036.2R
$$

TC  - TEMPERATURE IN CELSIUS
VSB - VISIBILITY IN STATUTE MILES
WCI - WIND CHILL INDEX
HX  - HEAT INDEX



USA.gov is the U.S. government's official web portal to all federal, state and local government web resources and services.